This is the latest recevied weather packets stored in our database for station/object S56VIL-11. If no packets are shown the sender has not sent any weather packets the latest 10 day(s).
| Time | Temp. | Humidity | Pressure | Rain* | Wind** | Luminosity | Snow |
|---|---|---|---|---|---|---|---|
| 1788632746 | 21.11° C | 59% | 1033.6 hPa | - | - | - | - |
| 1788631846 | 21.11° C | 60% | 1033.4 hPa | - | - | - | - |
| 1788630946 | 21.11° C | 59% | 1033.1 hPa | - | - | - | - |
| 1788630045 | 21.67° C | 59% | 1032.8 hPa | - | - | - | - |
| 1788629145 | 21.67° C | 59% | 1032.8 hPa | - | - | - | - |
| 1788623745 | 27.78° C | 55% | 1031.8 hPa | - | - | - | - |
| 1788622845 | 28.89° C | 55% | 1031.7 hPa | - | - | - | - |
| 1788621945 | 28.89° C | 55% | 1031.8 hPa | - | - | - | - |
| 1788620145 | 30° C | 55% | 1031.8 hPa | - | - | - | - |
| 1788619245 | 30.56° C | 55% | 1031.7 hPa | - | - | - | - |
| 1788618345 | 33.33° C | 55% | 1031.5 hPa | - | - | - | - |
| 1788617445 | 33.89° C | 53% | 1031.5 hPa | - | - | - | - |
| 1788616545 | 30.56° C | 55% | 1031.6 hPa | - | - | - | - |
| 1788615668 | 28.89° C | 55% | 1031.7 hPa | - | - | - | - |
| 1788613845 | 27.22° C | 57% | 1031.5 hPa | - | - | - | - |
| 1788612945 | 27.22° C | 58% | 1031.6 hPa | - | - | - | - |
| 1788612044 | 26.67° C | 58% | 1031.8 hPa | - | - | - | - |
| 1788609344 | 26.11° C | 58% | 1032 hPa | - | - | - | - |
| 1788608444 | 27.22° C | 58% | 1031.8 hPa | - | - | - | - |
| 1788607544 | 27.22° C | 59% | 1032 hPa | - | - | - | - |
| 1788606644 | 26.67° C | 59% | 1031.9 hPa | - | - | - | - |
| 1788605744 | 26.67° C | 59% | 1031.8 hPa | - | - | - | - |
| 1788604844 | 27.78° C | 60% | 1031.8 hPa | - | - | - | - |
| 1788603944 | 28.89° C | 59% | 1031.8 hPa | - | - | - | - |
| 1788603049 | 28.89° C | 59% | 1032 hPa | - | - | - | - |
* Rain since midnight (hover to see other rain measurements)
** Current wind speed in m/s (hover to see current wind gust speed)